[[{"header":{"parameterUnit":"m.s-1","parameterCategory":1,"la1":30.2991,"la2":30.254,"lo1":-89.0895,"lo2":-89.0444,"dy":0.0017,"dx":0.0017,"nx":28,"ny":28,"refTime":"2025-07-16T21:00:00:Z","depth":0,"parameterNumber":2,"parameterNumberName":"U-component_of_WINDS"},"data":[0,0,0,0,0,0,0,0,0,0,0,0,0,0,0,0,0,0,0,0,0,0,0,0,0,0,0,0,0,0,0,0,0,0,0,0,0,0,0,0,0,0,0,0,0,0,0,0,0,0,0,0,0,0,0,0,0,0,1.2369,1.2369,0,1.2423,1.2424,1.2425,1.2424,1.2423,1.2422,1.2422,1.2475,1.2477,1.2479,0,0,0,0,0,0,0,0,0,0,0,0,0,1.226,1.2262,1.2369,1.2369,1.237,1.2423,1.2424,1.2425,1.2424,1.2423,1.2422,1.2421,1.2474,1.2477,1.2479,0,0,0,0,0,0,0,0,0,0,0,0,0,1.231,1.2262,1.2369,1.2376,1.2377,1.2423,1.2424,1.2425,1.2424,1.2423,1.2422,1.2421,1.2473,1.2476,1.2479,1.252,0,0,1.2489,1.249,0,0,0,0,0,0,0,0,1.2307,1.2314,1.2374,1.2376,1.2377,1.2416,1.2405,1.2457,1.2424,1.2406,1.2422,1.242,1.2456,1.246,1.2473,1.2523,1.2525,1.2489,1.2491,1.2492,1.2493,0,0,0,0,0,0,0,1.2304,1.2312,1.239,1.2375,1.2377,1.2376,1.2381,1.2415,1.2436,1.2408,1.2408,1.2415,1.2456,1.247,1.2474,1.2526,1.2489,1.2492,1.2494,1.2495,1.261,1.2611,0,0,0,0,0,0,1.2299,1.2309,1.2389,1.2392,1.2339,1.2378,1.2385,1.2404,1.2436,1.244,1.2415,1.2414,1.2465,1.247,1.2476,1.2524,1.2492,1.2495,1.2497,1.2609,1.261,1.2611,0,0,0,0,0,0,1.2297,1.2306,1.2386,1.235,1.236,1.2381,1.2403,1.2406,1.242,1.2442,1.2445,1.2425,1.2464,1.2471,1.2509,1.2526,1.2497,1.25,1.2607,1.2609,1.2611,1.2623,0,0,0,0,0,0,1.2294,1.2305,1.2322,1.2351,1.2362,1.242,1.2404,1.2408,1.2425,1.2424,1.2452,1.2456,1.2464,1.2504,1.2512,1.253,1.2502,1.2606,1.2608,1.261,1.2621,1.2625,1.2628,0,0,0,0,0,1.229,1.2323,1.2323,1.2333,1.2384,1.2421,1.2427,1.2437,1.2427,1.2443,1.2457,1.2455,1.2523,1.2508,1.2517,1.2536,1.2605,1.2607,1.261,1.2619,1.2624,1.2628,0,0,0,0,0,0,1.2295,1.2327,1.2327,1.2371,1.2393,1.2421,1.2441,1.2442,1.2467,1.2465,1.2475,1.2481,1.2518,1.2531,1.2513,1.2576,1.2562,1.2567,1.2567,1.2571,1.2575,1.257,1.2505,0,0,0,0,0,1.2302,1.233,1.2356,1.2392,1.2403,1.242,1.2437,1.2442,1.2465,1.2474,1.2491,1.2513,1.2539,1.2556,1.2581,1.2623,1.2628,1.264,1.2644,1.2647,1.265,1.2671,1.2677,1.262,1.262,1.262,0,0,1.2315,1.2336,1.2353,1.2394,1.2411,1.2439,1.2428,1.2458,1.2478,1.2479,1.2515,1.2528,1.2552,1.2592,1.261,1.2603,1.2667,1.265,1.2652,1.2654,1.2674,1.268,1.2685,1.2622,1.2621,1.2621,0,0,1.2353,1.2373,1.2404,1.2422,1.2449,1.2461,1.2468,1.2495,1.2504,1.2541,1.2541,1.2564,1.261,1.2627,1.2641,1.2685,1.2683,1.2693,1.2711,1.2731,1.2736,1.274,1.2754,1.2759,1.2696,1.2696,1.2696,0,1.2366,1.2409,1.242,1.245,1.2467,1.2469,1.25,1.2517,1.255,1.2561,1.2554,1.261,1.2627,1.2669,1.268,1.2692,1.27,1.2689,1.2735,1.2739,1.2742,1.2756,1.2761,1.2697,1.2697,1.2697,1.2697,0,1.2422,1.2452,1.2474,1.2507,1.2526,1.2557,1.2571,1.2589,1.2593,1.2604,1.2641,1.2661,1.269,1.27,1.2704,1.2743,1.2738,1.2733,1.2719,1.2749,1.2761,1.2767,1.2698,1.2698,1.2698,1.2698,0,0,1.2465,1.2504,1.2511,1.2526,1.2556,1.2578,1.2608,1.2637,1.2652,1.2675,1.2699,1.2736,1.2731,1.2748,1.2753,1.2772,1.2803,1.2764,1.2765,1.2769,1.2845,1.2848,1.2854,1.2802,1.2803,1.2804,1.2843,0,1.2505,1.2559,1.2569,1.2616,1.2642,1.2644,1.267,1.269,1.2701,1.2724,1.2736,1.2762,1.2754,1.2764,1.2782,1.2795,1.2818,1.2793,1.2823,1.2824,1.2816,1.2861,1.2865,1.29,1.2848,1.2849,1.285,0,1.2559,1.2584,1.2633,1.2658,1.267,1.2693,1.2719,1.2742,1.2764,1.2771,1.2789,1.2793,1.2822,1.2807,1.2847,1.283,1.2843,1.2851,1.2852,1.2855,1.2838,1.2864,1.2912,1.2917,1.2858,1.2857,1.2857,0,1.2584,1.2629,1.2664,1.2677,1.2708,1.2723,1.2737,1.2758,1.2775,1.2798,1.2808,1.2834,1.2848,1.2867,1.2877,1.2866,1.2915,1.2902,1.292,1.292,1.293,1.2929,1.298,1.294,1.294,1.294,1.294,0,1.2627,1.2656,1.2676,1.2697,1.2729,1.2741,1.2772,1.2785,1.2804,1.2827,1.283,1.2851,1.2863,1.2886,1.2893,1.2924,1.2931,1.2936,1.2937,1.2935,1.2934,1.2943,1.2941,1.2942,1.2941,1.2941,1.2941,0,1.2659,1.2674,1.2711,1.2738,1.2745,1.2767,1.2789,1.2809,1.282,1.2849,1.2856,1.2873,1.29,1.2912,1.2944,1.2949,1.2984,1.2985,1.2977,1.2977,1.2995,1.2993,1.3053,1.306,1.3016,1.3017,1.3017,0,1.2685,1.2708,1.2736,1.2752,1.2766,1.2792,1.2809,1.282,1.2837,1.2864,1.288,1.2907,1.2929,1.2971,1.2986,1.3011,1.3011,1.303,1.3014,1.3011,1.301,1.3008,1.301,1.3032,1.3033,1.3033,1.3034,0,1.2729,1.2735,1.2759,1.2786,1.2807,1.2828,1.2849,1.2862,1.2876,1.2895,1.2922,1.294,1.2973,1.2999,1.3025,1.3037,1.3037,1.3039,1.3044,1.3041,1.3036,1.3038,1.2984,1.3037,1.3037,1.3036,1.3036,1.3036,1.2758,1.2778,1.2801,1.2828,1.2845,1.2865,1.2884,1.2898,1.2922,1.295,1.2955,1.2984,1.3005,1.3039,1.3053,1.3075,1.307,1.3078,1.308,1.3082,1.3082,1.3033,1.308,1.3079,1.3079,1.3079,1.3079,0,1.2801,1.2816,1.2841,1.287,1.2891,1.2891,1.2914,1.2931,1.2957,1.2977,1.2998,1.3029,1.3054,1.3071,1.3096,1.3111,1.3111,1.3117,1.3115,1.3118,1.3086,1.3078,1.3116,1.3116,1.3116,1.3116,1.3116,1.3116,1.2825,1.2859,1.2867,1.2909,1.2923,1.2952,1.2965,1.2983,1.2999,1.3033,1.3055,1.3066,1.3084,1.311,1.3133,1.3137,1.3146,1.3151,1.3155,1.3124,1.312,1.3117,1.311,1.3153,1.3154,1.3186,1.3186,1.3186]},{"header":{"parameterUnit":"m.s-1","parameterCategory":1,"la1":30.2991,"la2":30.254,"lo1":-89.0895,"lo2":-89.0444,"dy":0.0017,"dx":0.0017,"nx":28,"ny":28,"refTime":"2025-07-16T21:00:00:Z","depth":0,"parameterNumber":3,"parameterNumberName":"V-component_of_WINDS"},"data":[0,0,0,0,0,0,0,0,0,0,0,0,0,0,0,0,0,0,0,0,0,0,0,0,0,0,0,0,0,0,0,0,0,0,0,0,0,0,0,0,0,0,0,0,0,0,0,0,0,0,0,0,0,0,0,0,0,0,4.6683,4.6681,0,4.6511,4.6509,4.6507,4.6462,4.6464,4.6465,4.6466,4.6273,4.6267,4.6261,0,0,0,0,0,0,0,0,0,0,0,0,0,4.6954,4.6949,4.6683,4.6681,4.6679,4.6512,4.6509,4.6507,4.6462,4.6464,4.6465,4.6466,4.6275,4.6268,4.6261,0,0,0,0,0,0,0,0,0,0,0,0,0,4.6814,4.6947,4.6683,4.6637,4.6631,4.6512,4.6509,4.6506,4.6462,4.6464,4.6465,4.6467,4.6278,4.6269,4.626,4.617,0,0,4.6231,4.6227,0,0,0,0,0,0,0,0,4.6822,4.6804,4.6646,4.664,4.6633,4.651,4.6534,4.6393,4.6462,4.6525,4.6466,4.6468,4.635,4.6335,4.6298,4.6161,4.6152,4.6231,4.6225,4.6221,4.6218,0,0,0,0,0,0,0,4.6832,4.6811,4.6614,4.6643,4.6635,4.6618,4.66,4.6507,4.643,4.652,4.6517,4.6498,4.6346,4.6307,4.6293,4.615,4.6231,4.6223,4.6217,4.6213,4.5924,4.5922,0,0,0,0,0,0,4.6852,4.682,4.662,4.6609,4.6734,4.6612,4.6592,4.6548,4.6431,4.6415,4.6496,4.6496,4.6322,4.6304,4.6286,4.617,4.6221,4.6212,4.6207,4.5926,4.5923,4.5921,0,0,0,0,0,0,4.6858,4.6835,4.6627,4.6713,4.6686,4.6606,4.6556,4.6543,4.6505,4.6413,4.6398,4.6472,4.6323,4.6299,4.6199,4.6163,4.6208,4.62,4.5928,4.5925,4.5922,4.5939,0,0,0,0,0,0,4.6866,4.6837,4.6807,4.6713,4.6681,4.6548,4.6554,4.6539,4.6491,4.6489,4.6386,4.637,4.6322,4.6213,4.619,4.6151,4.6193,4.5931,4.5927,4.5923,4.5941,4.5936,4.5933,0,0,0,0,0,4.6876,4.6815,4.6805,4.6781,4.6643,4.6546,4.6527,4.6478,4.6488,4.6453,4.6394,4.6374,4.6171,4.6203,4.6177,4.6134,4.5933,4.5928,4.5923,4.5943,4.5937,4.5933,0,0,0,0,0,0,4.6901,4.6802,4.679,4.6699,4.6632,4.6539,4.6494,4.6474,4.6398,4.6399,4.6336,4.6313,4.6215,4.6165,4.6202,4.6038,4.6051,4.6041,4.6075,4.6069,4.6065,4.6077,4.6185,0,0,0,0,0,4.6897,4.6833,4.6748,4.6675,4.6643,4.6574,4.653,4.6499,4.6424,4.6394,4.6327,4.6251,4.6169,4.6117,4.6037,4.5934,4.5907,4.5891,4.5887,4.5884,4.5875,4.5811,4.5801,4.5905,4.5905,4.5905,0,0,4.6886,4.6824,4.6786,4.6679,4.6623,4.6551,4.655,4.6476,4.642,4.638,4.6282,4.6231,4.614,4.6038,4.5989,4.5992,4.584,4.5878,4.5876,4.5868,4.5805,4.5795,4.5786,4.5901,4.5902,4.5903,0,0,4.6829,4.6779,4.6711,4.6656,4.6573,4.6528,4.6511,4.6421,4.6387,4.6289,4.6256,4.6186,4.6049,4.5985,4.5934,4.5851,4.5827,4.5827,4.5803,4.5742,4.5734,4.5726,4.5692,4.5681,4.5818,4.5818,4.5818,0,4.6824,4.6721,4.6677,4.6604,4.6554,4.6521,4.6448,4.6394,4.6287,4.6251,4.6259,4.6084,4.6021,4.59,4.588,4.5842,4.5816,4.5837,4.574,4.5732,4.5723,4.569,4.5677,4.5818,4.5818,4.5818,4.5818,0,4.6717,4.6645,4.66,4.6503,4.6448,4.6376,4.6314,4.6263,4.6236,4.6188,4.6084,4.6008,4.5911,4.588,4.5851,4.5754,4.5758,4.5754,4.5764,4.5715,4.5681,4.5669,4.5819,4.5819,4.5819,4.5819,0,0,4.667,4.655,4.6533,4.6487,4.6393,4.6333,4.6256,4.6167,4.6122,4.6048,4.5978,4.5862,4.5857,4.5799,4.5762,4.5709,4.5642,4.5709,4.5706,4.5696,4.5523,4.5525,4.5511,4.5627,4.5625,4.5623,4.553,0,4.6598,4.6466,4.6423,4.6309,4.6239,4.6206,4.6137,4.6068,4.6021,4.5949,4.5894,4.5812,4.5814,4.5778,4.5725,4.5662,4.5606,4.5668,4.5554,4.555,4.5574,4.5495,4.5497,4.5413,4.5517,4.5515,4.5513,0,4.6497,4.6427,4.6309,4.622,4.6189,4.613,4.6041,4.5976,4.5895,4.5863,4.58,4.5766,4.5677,4.5696,4.5569,4.5613,4.5563,4.5524,4.552,4.5504,4.5526,4.5472,4.5385,4.5371,4.5493,4.5495,4.5496,0,4.6469,4.6345,4.6257,4.6219,4.6115,4.6073,4.6027,4.5948,4.5895,4.5816,4.578,4.569,4.564,4.5568,4.5508,4.5529,4.5384,4.5399,4.535,4.5351,4.5318,4.532,4.5218,4.5293,4.5293,4.5294,4.5294,0,4.6391,4.6319,4.6243,4.6189,4.6104,4.6053,4.5969,4.5919,4.5849,4.5779,4.5743,4.5677,4.5605,4.5527,4.5479,4.5378,4.5356,4.5323,4.531,4.5324,4.5328,4.5288,4.529,4.529,4.5291,4.5292,4.5292,0,4.6345,4.6293,4.6194,4.6105,4.608,4.6021,4.5941,4.5883,4.5835,4.5747,4.5723,4.5644,4.5551,4.5486,4.5364,4.5332,4.5221,4.5211,4.525,4.5243,4.5195,4.5199,4.506,4.5037,4.5133,4.5132,4.5131,0,4.6298,4.6242,4.6147,4.6101,4.6056,4.5981,4.5928,4.5873,4.5818,4.572,4.5672,4.5578,4.55,4.5351,4.5278,4.5184,4.5168,4.5126,4.5153,4.5167,4.5161,4.5164,4.5155,4.512,4.512,4.5119,4.5119,0,4.6217,4.6193,4.6122,4.604,4.5979,4.5911,4.5841,4.5803,4.5735,4.5674,4.5581,4.5521,4.5398,4.5302,4.5201,4.5145,4.5117,4.5112,4.5094,4.5105,4.5128,4.511,4.5234,4.5114,4.5114,4.5115,4.5115,4.5115,4.6165,4.6112,4.6037,4.5957,4.59,4.5836,4.5777,4.5722,4.5646,4.5545,4.5516,4.5418,4.5332,4.5194,4.5137,4.5055,4.5057,4.5033,4.5026,4.502,4.5018,4.5146,4.5036,4.5036,4.5036,4.5036,4.5037,0,4.6078,4.6029,4.5956,4.5862,4.5798,4.5785,4.5706,4.5651,4.5567,4.5493,4.5417,4.5307,4.5213,4.5134,4.5036,4.4984,4.4968,4.4959,4.496,4.4946,4.5024,4.5047,4.4973,4.4973,4.4973,4.4973,4.4973,4.4974,4.6025,4.5935,4.5902,4.5779,4.5728,4.5636,4.5592,4.553,4.547,4.5351,4.5275,4.5226,4.5147,4.5042,4.4953,4.4932,4.4894,4.4887,4.4862,4.4935,4.4942,4.4948,4.497,4.4881,4.4881,4.4791,4.479,4.479]}]]